Location: Miami, Florida
(25.6830°N, 80.1700°W)
Time: 23:01:10
(UTC-04:00)

Vanguard 1 Rocket - All Passes

Search period start: 20 June 2018 00:00
Search period end: 30 June 2018 00:00
Orbit: 653 x 4224 km, 34.3° (Epoch: 20 June)

Date Brightness Start Highest point End Pass type
(mag) Time Alt. Az. Time Alt. Az. Time Alt. Az.
20 Jun - 00:18:44 10° WNW 00:28:57 58° SSW 00:48:39 10° SE visible
20 Jun - 02:47:50 10° W 02:59:41 23° SW 03:16:14 10° S visible
20 Jun - 15:53:18 10° SW 15:58:08 48° SSE 16:02:23 10° ENE daylight
20 Jun - 18:18:57 10° W 18:23:08 39° N 18:28:39 10° ENE daylight
20 Jun - 20:43:48 10° WNW 20:49:27 49° NNE 20:59:33 10° E visible
20 Jun - 23:07:54 10° WNW 23:16:19 77° SSW 23:33:33 10° SE visible
21 Jun - 01:34:18 10° W 01:45:35 33° SSW 02:03:59 10° SSE visible
21 Jun - 14:42:33 10° SSW 14:47:20 24° SSE 14:51:03 10° E daylight
21 Jun - 17:07:43 10° W 17:12:08 57° NNW 17:16:53 10° ENE daylight
21 Jun - 19:33:23 10° WNW 19:38:00 37° N 19:45:04 10° ENE daylight
21 Jun - 21:57:27 10° WNW 22:04:21 79° NNE 22:18:09 10° ESE visible
22 Jun - 00:22:23 10° W 00:32:11 46° SSW 00:50:20 10° SE visible
22 Jun - 02:53:52 10° WSW 03:03:13 17° SSW 03:15:16 10° S visible
22 Jun - 13:32:36 10° S 13:36:03 14° SSE 13:38:51 10° ESE daylight
22 Jun - 15:56:17 10° WSW 16:01:27 77° SSE 16:05:50 10° ENE daylight
22 Jun - 18:22:37 10° WNW 18:26:41 34° N 18:31:56 10° ENE daylight
22 Jun - 20:47:12 10° WNW 20:52:49 55° NNE 21:02:59 10° E visible
22 Jun - 23:11:21 10° WNW 23:19:31 62° SSW 23:35:53 10° SE visible
23 Jun - 01:38:51 10° W 01:49:00 25° SSW 02:04:25 10° SSE visible
23 Jun - 14:44:50 10° SW 14:50:42 39° SSE 14:54:56 10° E daylight
23 Jun - 17:11:18 10° W 17:15:35 42° NNW 17:20:07 10° ENE daylight
23 Jun - 19:36:55 10° WNW 19:41:30 39° NNE 19:48:36 10° E daylight
23 Jun - 22:00:49 10° WNW 22:07:34 86° SSW 22:21:04 10° ESE visible
24 Jun - 00:26:17 10° W 00:35:32 35° SSW 00:51:37 10° SSE visible
24 Jun - 03:04:03 10° SW 03:07:04 10° SSW 03:10:17 10° SSW night (unlit)
24 Jun - 13:33:36 10° SSW 13:39:32 23° SSE 13:43:43 10° E daylight
24 Jun - 15:59:31 10° WSW 16:04:46 72° NNW 16:09:09 10° ENE daylight
24 Jun - 18:26:15 10° WNW 18:30:15 31° N 18:35:20 10° ENE daylight
24 Jun - 20:50:34 10° WNW 20:56:08 66° NNE 21:06:21 10° ESE visible
24 Jun - 23:14:56 10° W 23:22:49 48° SSW 23:37:53 10° SE visible
25 Jun - 01:44:20 10° WSW 01:52:36 18° SSW 02:03:55 10° S visible
25 Jun - 12:23:08 10° S 12:27:49 15° SSE 12:31:28 10° ESE daylight
25 Jun - 14:47:32 10° SW 14:54:02 61° SSE 14:58:30 10° ENE daylight
25 Jun - 17:14:57 10° WNW 17:19:04 34° N 17:23:23 10° ENE daylight
25 Jun - 19:40:19 10° WNW 19:44:57 43° NNE 19:52:09 10° E daylight
25 Jun - 22:04:14 10° WNW 22:10:49 68° SSW 22:23:43 10° SE visible
26 Jun - 00:30:38 10° W 00:39:01 26° SSW 00:52:23 10° SSE visible
26 Jun - 13:35:30 10° SW 13:42:59 35° SSE 13:47:45 10° E daylight
26 Jun - 16:02:58 10° W 16:08:09 51° NNW 16:12:25 10° ENE daylight
26 Jun - 18:29:48 10° WNW 18:33:47 31° N 18:38:51 10° ENE daylight
26 Jun - 20:53:54 10° WNW 20:59:25 82° NNE 21:09:31 10° ESE visible
26 Jun - 23:18:45 10° W 23:26:13 36° SSW 23:39:31 10° SSE visible
27 Jun - 01:52:36 10° SW 01:56:24 11° SSW 02:00:43 10° SSW night (unlit)
27 Jun - 12:23:43 10° SSW 12:31:24 23° SSE 12:36:28 10° ESE daylight
27 Jun - 14:50:31 10° WSW 14:57:21 89° SSE 15:01:55 10° ENE daylight
27 Jun - 17:18:36 10° WNW 17:22:36 30° N 17:26:44 10° ENE daylight
27 Jun - 19:43:40 10° WNW 19:48:20 52° NNE 19:55:39 10° E daylight
27 Jun - 22:07:46 10° WNW 22:14:09 51° SSW 22:26:04 10° SE visible
28 Jun - 00:35:47 10° WSW 00:42:38 18° SSW 00:52:19 10° S visible
28 Jun - 11:12:43 10° S 11:19:11 16° SSE 11:23:59 10° ESE daylight
28 Jun - 13:37:51 10° SW 13:46:23 53° SSE 13:51:25 10° ENE daylight
28 Jun - 16:06:31 10° W 16:11:33 40° NNW 16:15:42 10° NE daylight
28 Jun - 18:33:14 10° NW 18:37:18 34° NNE 18:42:26 10° ENE daylight
28 Jun - 20:57:17 10° WNW 21:02:41 77° SSW 21:12:29 10° ESE visible
28 Jun - 23:22:57 10° W 23:29:44 26° SSW 23:40:39 10° SSE visible
29 Jun - 12:25:13 10° SSW 12:34:55 34° SSE 12:40:38 10° E daylight
29 Jun - 14:53:44 10° WSW 15:00:40 67° NNW 15:05:14 10° ENE daylight
29 Jun - 17:22:11 10° WNW 17:26:09 28° N 17:30:12 10° ENE daylight
29 Jun - 19:46:59 10° WNW 19:51:40 66° NNE 19:59:02 10° ESE daylight
29 Jun - 22:11:30 10° W 22:17:32 36° SSW 22:28:04 10° SE visible
